Stations météo

réclame
Mon MeteoGroup
San Sebastian/Igueldo, Espagne (8027): Température de l'air & dewpoint: 18.05.2019 05:00:00 - 24.05.2019 05:00:00 (CEST)San Sebastian/Igueldo, Espagne (8027): Vitesse du vent: 18.05.2019 05:00:00 - 24.05.2019 05:00:00 (CEST)San Sebastian/Igueldo, Espagne (8027): Direction du vent: 18.05.2019 05:00:00 - 24.05.2019 05:00:00 (CEST)San Sebastian/Igueldo, Espagne (8027): reduced air pressure: 18.05.2019 05:00:00 - 24.05.2019 05:00:00 (CEST)San Sebastian/Igueldo, Espagne (8027): visibility: 18.05.2019 05:00:00 - 24.05.2019 05:00:00 (CEST)
Date & Time tt [°C] td [°C] ff [km/h] ff [knt] dd ppp [hPa] vv [km]
24.05.2019 05:00:00 - - - - - - -
24.05.2019 04:00:00 - - - - - - -
24.05.2019 03:00:00 - - - - - - -
24.05.2019 02:00:00 12,8 12,8 24 13 WNW 1020,2 5
24.05.2019 01:00:00 - - - - - - -
24.05.2019 00:00:00 - - - - - - -
23.05.2019 23:00:00 13,0 13,0 22 12 WNW 1020,2 -
23.05.2019 22:00:00 - - - - - - -
23.05.2019 21:00:00 - - - - - - -
23.05.2019 20:00:00 13,4 12,6 18 10 WNW 1019,5 3,0
23.05.2019 19:00:00 - - - - - - -
23.05.2019 18:00:00 - - - - - - -
23.05.2019 17:00:00 14,0 12,9 15 8 WNW 1018,8 4,0
23.05.2019 16:00:00 - - - - - - -
23.05.2019 15:00:00 - - - - - - -
23.05.2019 14:00:00 14,3 13,2 18 10 WNW 1019,1 10
23.05.2019 13:00:00 - - - - - - -
23.05.2019 12:00:00 - - - - - - -
23.05.2019 11:00:00 17,3 14,6 5 3 NW 1017,6 17
23.05.2019 10:00:00 - - - - - - -
23.05.2019 09:00:00 - - - - - - -
23.05.2019 08:00:00 14,9 12,8 5 3 SSE 1017,3 20
23.05.2019 07:00:00 - - - - - - -
23.05.2019 06:00:00 - - - - - - -
23.05.2019 05:00:00 13,9 13,0 5 3 SSE 1017,0 25
23.05.2019 04:00:00 - - - - - - -
23.05.2019 03:00:00 - - - - - - -
23.05.2019 02:00:00 14,0 12,9 5 3 S 1017,9 20
23.05.2019 01:00:00 - - - - - - -
23.05.2019 00:00:00 - - - - - - -
22.05.2019 23:00:00 14,6 13,1 4 2 SSE 1018,0 25
22.05.2019 22:00:00 - - - - - - -
22.05.2019 21:00:00 - - - - - - -
22.05.2019 20:00:00 16,6 14,4 9 5 N 1017,6 12
22.05.2019 19:00:00 - - - - - - -
22.05.2019 18:00:00 - - - - - - -
22.05.2019 17:00:00 17,1 14,6 9 5 N 1018,3 12
22.05.2019 16:00:00 - - - - - - -
22.05.2019 15:00:00 - - - - - - -
22.05.2019 14:00:00 15,0 12,5 15 8 N 1019,3 20
22.05.2019 13:00:00 - - - - - - -
22.05.2019 12:00:00 - - - - - - -
22.05.2019 11:00:00 15,0 12,1 4 2 N 1020,2 20
22.05.2019 10:00:00 - - - - - - -
22.05.2019 09:00:00 - - - - - - -
22.05.2019 08:00:00 11,5 10,6 0 0 N 1020,4 35
22.05.2019 07:00:00 - - - - - - -
22.05.2019 06:00:00 - - - - - - -
22.05.2019 05:00:00 10,8 9,9 4 2 N 1020,4 40
22.05.2019 04:00:00 - - - - - - -
22.05.2019 03:00:00 - - - - - - -
22.05.2019 02:00:00 11,2 10,1 5 3 S 1020,6 45
22.05.2019 01:00:00 - - - - - - -
22.05.2019 00:00:00 - - - - - - -
21.05.2019 23:00:00 12,0 10,4 0 0 N 1020,4 45
21.05.2019 22:00:00 - - - - - - -
21.05.2019 21:00:00 - - - - - - -
21.05.2019 20:00:00 14,2 10,4 11 6 N 1019,3 45
21.05.2019 19:00:00 - - - - - - -
21.05.2019 18:00:00 - - - - - - -
21.05.2019 17:00:00 14,7 11,7 15 8 NNW 1019,3 35
21.05.2019 16:00:00 - - - - - - -
21.05.2019 15:00:00 - - - - - - -
21.05.2019 14:00:00 14,2 11,0 15 8 N 1019,3 20
21.05.2019 13:00:00 - - - - - - -
21.05.2019 12:00:00 - - - - - - -
21.05.2019 11:00:00 12,4 10,5 8 4 NW 1018,7 20
21.05.2019 10:00:00 - - - - - - -
21.05.2019 09:00:00 - - - - - - -
21.05.2019 08:00:00 10,6 9,8 4 2 SE 1018,4 18
21.05.2019 07:00:00 - - - - - - -
21.05.2019 06:00:00 - - - - - - -
21.05.2019 05:00:00 9,6 9,5 4 2 SSE 1018,2 15
21.05.2019 04:00:00 - - - - - - -
21.05.2019 03:00:00 - - - - - - -
21.05.2019 02:00:00 10,8 10,3 4 2 ENE 1017,8 20
21.05.2019 01:00:00 - - - - - - -
21.05.2019 00:00:00 - - - - - - -
20.05.2019 23:00:00 11,3 10,4 8 4 N 1017,2 20
20.05.2019 22:00:00 - - - - - - -
20.05.2019 21:00:00 - - - - - - -
20.05.2019 20:00:00 13,0 11,1 8 4 N 1016,1 20
20.05.2019 19:00:00 - - - - - - -
20.05.2019 18:00:00 - - - - - - -
20.05.2019 17:00:00 13,3 11,2 16 9 NW 1016,0 20
20.05.2019 16:00:00 - - - - - - -
20.05.2019 15:00:00 - - - - - - -
20.05.2019 14:00:00 13,2 10,0 15 8 NW 1016,4 30
20.05.2019 13:00:00 - - - - - - -
20.05.2019 12:00:00 - - - - - - -
20.05.2019 11:00:00 12,0 8,5 11 6 WNW 1016,3 25
20.05.2019 10:00:00 - - - - - - -
20.05.2019 09:00:00 - - - - - - -
20.05.2019 08:00:00 10,0 7,8 16 9 W 1015,6 25
20.05.2019 07:00:00 - - - - - - -
20.05.2019 06:00:00 - - - - - - -
20.05.2019 05:00:00 9,5 7,6 15 8 WSW 1015,6 40
20.05.2019 04:00:00 - - - - - - -
20.05.2019 03:00:00 - - - - - - -
20.05.2019 02:00:00 10,2 8,8 11 6 WSW 1016,1 30
20.05.2019 01:00:00 - - - - - - -
20.05.2019 00:00:00 - - - - - - -
19.05.2019 23:00:00 11,2 10,1 18 10 WNW 1016,1 20
19.05.2019 22:00:00 - - - - - - -
19.05.2019 21:00:00 - - - - - - -
19.05.2019 20:00:00 10,8 10,0 28 15 WNW 1014,7 9
19.05.2019 19:00:00 - - - - - - -
19.05.2019 18:00:00 - - - - - - -
19.05.2019 17:00:00 10,7 10,1 31 17 WNW 1014,5 12
19.05.2019 16:00:00 - - - - - - -
19.05.2019 15:00:00 - - - - - - -
19.05.2019 14:00:00 10,4 10,4 29 16 W 1012,5 30
19.05.2019 13:00:00 - - - - - - -
19.05.2019 12:00:00 - - - - - - -
19.05.2019 11:00:00 9,8 9,8 29 16 W 1012,9 20
19.05.2019 10:00:00 - - - - - - -
19.05.2019 09:00:00 - - - - - - -
19.05.2019 08:00:00 9,6 9,5 37 20 SSW 1011,3 12
19.05.2019 07:00:00 - - - - - - -
19.05.2019 06:00:00 - - - - - - -
19.05.2019 05:00:00 10,8 10,8 34 18 WNW 1011,0 12
19.05.2019 04:00:00 - - - - - - -
19.05.2019 03:00:00 - - - - - - -
19.05.2019 02:00:00 9,8 9,7 29 16 W 1011,5 12
19.05.2019 01:00:00 - - - - - - -
19.05.2019 00:00:00 - - - - - - -
18.05.2019 23:00:00 9,4 8,9 28 15 W 1011,7 15
18.05.2019 22:00:00 - - - - - - -
18.05.2019 21:00:00 - - - - - - -
18.05.2019 20:00:00 9,1 7,9 26 14 WSW 1011,7 12
18.05.2019 19:00:00 - - - - - - -
18.05.2019 18:00:00 - - - - - - -
18.05.2019 17:00:00 9,4 8,3 13 7 W 1011,9 15
18.05.2019 16:00:00 - - - - - - -
18.05.2019 15:00:00 - - - - - - -
18.05.2019 14:00:00 10,0 8,1 18 10 WSW 1011,6 18
18.05.2019 13:00:00 - - - - - - -
18.05.2019 12:00:00 - - - - - - -
18.05.2019 11:00:00 9,9 7,5 16 9 W 1010,6 20
18.05.2019 10:00:00 - - - - - - -
18.05.2019 09:00:00 - - - - - - -
18.05.2019 08:00:00 8,4 5,3 18 10 WSW 1010,5 15
18.05.2019 07:00:00 - - - - - - -
18.05.2019 06:00:00 - - - - - - -
18.05.2019 05:00:00 9,0 4,6 22 12 WSW 1010,7 20

tt = Température de l'air
td = dewpoint
ff = Vitesse du vent
dd = Direction du vent
ppp = reduced air pressure
vv = visibility

stations d'obs. à proximité